This demonstration page uses our WeatherBlox Daily Observations layout. Learn more.

Left ArrowRight Arrow

Hourly Observations for April 18, 2021

Temp ( °F °C ) Dew Point ( °F °C ) Humidity (%) Winds ( mph kmh ) Pressure ( in mb ) Visibility ( mi km ) Precip ( " mm )
12:59 am 00:59 Cloudy 54 12.2 42 5.6 64 64 ENE 7 11 29.86 1011 10 16 0.00 0.00
1:59 am 01:59 Mostly Cloudy 55 12.8 41 5 59 59 E 6 9 29.86 1011 10 16 0.00 0.00
2:59 am 02:59 Cloudy 56 13.3 43 6.1 62 62 E 6 9 29.86 1011 10 16 0.00 0.00
3:59 am 03:59 Mostly Cloudy 56 13.3 43 6.1 62 62 ESE 6 9 29.87 1011 10 16 0.00 0.00
4:59 am 04:59 Cloudy with Light Rain 55 12.8 42 5.6 62 62 Calm 29.87 1012 10 16 0.00 0.00
5:59 am 05:59 Partly Cloudy 51 10.6 43 6.1 74 74 Calm 29.88 1012 10 16 0.00 0.00
6:59 am 06:59 Mostly Sunny 54 12.2 42 5.6 64 64 SE 5 7 29.88 1012 10 16 0.00 0.00
7:59 am 07:59 Mostly Sunny 58 14.4 43 6.1 58 58 SE 5 7 29.90 1013 10 16 0.00 0.00
8:59 am 08:59 Mostly Sunny 62 16.7 42 5.6 48 48 Calm 29.91 1013 10 16 0.00 0.00
9:59 am 09:59 Mostly Sunny 64 17.8 40 4.4 41 41 NE 8 13 29.92 1013 10 16 0.00 0.00
10:59 am 10:59 Mostly Sunny 64 17.8 43 6.1 46 46 NE 10 17 29.92 1013 10 16 0.00 0.00
11:59 am 11:59 Partly Cloudy 64 17.8 45 7.2 50 50 NNE 8 13 29.91 1013 10 16 0.00 0.00
12:59 pm 12:59 Mostly Cloudy 64 17.8 46 7.8 52 52 NE 8 13 29.90 1012 10 16 0.00 0.00
1:59 pm 13:59 Mostly Cloudy 65 18.3 45 7.2 49 49 ENE 9 15 29.89 1012 10 16 0.00 0.00
2:59 pm 14:59 Mostly Cloudy 65 18.3 42 5.6 43 43 E 8 13 29.88 1012 10 16 0.00 0.00
3:59 pm 15:59 Mostly Cloudy 66 18.9 41 5 40 40 ENE 9 15 29.86 1011 10 16 0.00 0.00
4:59 pm 16:59 Mostly Cloudy 66 18.9 41 5 40 40 E 6 9 29.87 1012 10 16 0.00 0.00
5:59 pm 17:59 Partly Cloudy 65 18.3 40 4.4 40 40 ESE 6 9 29.88 1012 10 16 0.00 0.00
6:59 pm 18:59 Partly Cloudy 62 16.7 40 4.4 44 44 E 8 13 29.89 1012 10 16 0.00 0.00
7:59 pm 19:59 Partly Cloudy 60 15.6 39 3.9 46 46 ESE 7 11 29.89 1012 10 16 0.00 0.00
8:59 pm 20:59 Partly Cloudy 57 13.9 40 4.4 53 53 ESE 6 9 29.90 1013 10 16 0.00 0.00
9:59 pm 21:59 Mostly Clear 57 13.9 42 5.6 58 58 SE 8 13 29.90 1013 10 16 0.00 0.00
10:59 pm 22:59 Clear 56 13.3 42 5.6 60 60 SE 5 7 29.90 1012 10 16 0.00 0.00
11:59 pm 23:59 Clear 56 13.3 41 5 57 57 ESE 8 13 29.90 1012 10 16 0.00 0.00

Powered by AerisWeather